Starlink 32248

operational
NORAD ID: 61219 Int'l Des: 2024-171 Owner: SPXS Country: US Constellation: starlink
LEOCIRCULAR

关于 Starlink 32248

正在加载描述...

实时位置

正在加载3D地球...

即将过境

高度历史

Altitude vs Time

uPlot chart will show altitude changes over time

两行轨道根数

1 61219U 24171V 25349.74728293 -.00000078 00000-0 94941-5 0 9997
2 61219 53.1614 352.5466 0000987 98.5198 261.5914 15.30195671 70425
Epoch: Dec 15, 2025 • Age: 18 hours

当前状态

高度 475.1 km
速度 7.63 km/s
星下点 13.05°N, 104.6°W
发射日期 Sep 20, 2024
运行时间 1.2 years
类型 internet

技术详情

分类 Payload
质量 730.00 kg
干质量 700.00 kg
总质量 730.00 kg
长度 0.30 m
直径 4.10 m
跨度 29.00 m
形状 Box + pan
制造商 SPXS
平台类型 Starlink V2M
阶段状态 In Orbit
所有者/国家 SPXS/US

大型星座

Loading constellations...